Regional Weather Roundup
Issued by NWS

Home | Current Version | Previous Version | Graphics & Text | Print | Product List | Glossary On
Versions: 1 2 3 4 5 6 7 8 9 10 11 12 13 14 15 16 17 18 19 20 21 22 23 24 25 26 27 28 29 30 31 32 33 34 35 36 37 38 39 40 41 42 43 44 45 46 47 48 49 50
000
ASUS43 KDTX 180410
RWRMI
MICHIGAN HOURLY REGIONAL WEATHER ROUNDUP
NATIONAL WEATHER SERVICE DETROIT/PONTIAC MI
1200 AM EDT WED OCT 18 2017

NOTE: "FAIR" INDICATES FEW OR NO CLOUDS BELOW 12,000 FEET WITH NO
SIGNIFICANT WEATHER AND/OR OBSTRUCTION TO VISIBILITY.

MIZ047>049-052>055-059>063-066>070-074>076-081>083-180500-
SOUTHEAST LOWER MICHIGAN

CITY           SKY/WX    TMP DP  RH WIND       PRES   REMARKS
ADRIAN         CLEAR     48  40  73 SW5       30.23R
ALMA           CLEAR     52  40  63 SW9       30.14S
ANN ARBOR      PTCLDY    49  40  71 S5        30.20S
BAD AXE        CLEAR     51  43  76 SW7       30.15S
CARO           CLEAR     45  42  88 CALM      30.15S
DETROIT CITY   CLEAR     56  41  57 SW7       30.20S
DETROIT        PTCLDY    51  41  68 S7        30.21S
FLINT          CLEAR     55  41  59 SW8       30.16F
GROSSE ILE     PTCLDY    56  42  60 SW3       30.21R
HILLSDALE      CLEAR     52  37  58 SW6       30.21S
HOWELL         CLOUDY    54  41  62 CALM      30.19R

CITY           SKY/WX    TMP DP  RH WIND       PRES   REMARKS
JACKSON        CLEAR     55  40  56 SW10      30.19S
LAMBERTVILLE   CLEAR     55  40  56 SW6       30.23R
LANSING        CLEAR     55  40  56 SW8       30.18R
LAPEER         FAIR      53  42  66 SW6       30.17S
MASON          CLEAR     57  41  54 SW5       30.18S
MONROE         CLOUDY    54  40  59 SW7       30.20S
MT. CLEMENS    CLEAR     56  42  57 SW8       30.17F
PONTIAC        PTCLDY    55  42  61 SW7       30.18S
PORT HOPE        N/A     56  45  66 SW5       30.11S
PORT HURON     CLEAR     55  43  62 SW3       30.18S
TRI CITIES     CLEAR     55  44  66 S8        30.14S
MIDLAND        FAIR      54  43  66 S5        30.12S
TROY           CLEAR     55  40  58 SW6       30.21S
SAGINAW HB     CLEAR     52  43  71 S8        30.14R
$$
MIZ043>046-050>051-056>058-064>065-071>073-077>080-180500-
SOUTHWEST LOWER MICHIGAN

CITY           SKY/WX    TMP DP  RH WIND       PRES   REMARKS
BATTLE CREEK   CLEAR     53  42  66 SW12      30.19F
BENTON HARBOR  CLEAR     55  39  54 S8        30.18R
BIG RAPIDS     CLEAR     56  46  67 SW7       30.11F
COLDWATER      CLEAR     53  39  59 CALM      30.21S
FREMONT        FAIR      54  49  82 CALM      30.12S
HOLLAND        PTCLDY    61  43  51 SW15      30.16S
GRAND RAPIDS   PTCLDY    57  43  59 SW10      30.16R
IONIA          FAIR      54  41  60 SW6       30.15S
KALAMAZOO      CLEAR     53  40  61 S7        30.20S
LUDINGTON      CLEAR     60  51  72 SW10      30.08S
MARSHALL       CLEAR     54  40  59 SW6       30.19F
MOUNT PLEASANT CLEAR     58  42  56 SW6       30.12R
MUSKEGON       PTCLDY    61  52  72 SW14      30.14R
SOUTH HAVEN    CLEAR     57  40  53 SW7       30.18R
$$
MIZ016>042-180500-
NORTHERN LOWER MICHIGAN

CITY           SKY/WX    TMP DP  RH WIND       PRES   REMARKS
ALPENA         CLOUDY    43  43 100 CALM      30.09S
BEAVER ISLAND  CLEAR     56  50  82 S6        30.03S
BELLAIRE       CLEAR     42  41  96 CALM      30.07S
CADILLAC       CLEAR     51  46  82 CALM      30.09F
CHARLEVOIX     CLEAR     52  46  81 SE6       30.07F
FRANKFORT      CLEAR     51  51  99 CALM      30.05F
GAYLORD        CLEAR     49  43  80 S3        30.08S
GRAYLING       CLOUDY    39  37  90 CALM      30.09F
HARBOR SPRINGS CLEAR     48  45  91 CALM      30.06S
HOUGHTON LAKE  CLEAR     53  46  77 CALM      30.10S
MANISTEE       CLEAR     55  50  83 VRB3      30.07S
OSCODA         PTCLDY    47  43  86 SW3       30.10S
PELLSTON       CLEAR     40  40 100 CALM      30.06S
ROGERS CITY    CLEAR     51  45  80 SW6       30.08R
TRAVERSE CITY  CLEAR     54  47  77 CALM      30.05S
$$
MIZ007>008-015-180500-
EASTERN UPPER MICHIGAN

CITY           SKY/WX    TMP DP  RH WIND       PRES   REMARKS
KINROSS        CLOUDY    51  50  96 VRB5      30.04F
MACKINAC ISLAN CLEAR     54  48  81 S7        30.05S
NEWBERRY       CLEAR     51  51  97 S7        30.01F
S. S. MARIE    CLEAR     46  43  89 E3        30.04S
MUNISING         N/A     56  51  84 S9        29.96F
$$
MIZ004>006-011>014-085-180500-
CENTRAL UPPER MICHIGAN

CITY           SKY/WX    TMP DP  RH WIND       PRES   REMARKS
MANISTIQUE     CLEAR     55  50  81 S3        30.01S
ESCANABA       PTCLDY    55  51  86 SW6       29.99S
MENOMINEE      CLEAR     55  49  80 SW7       30.00F
SAWYER-GWINN   CLEAR     50  45  84 S8        29.97S
$$
MIZ001>003-009>011-084-180500-
WESTERN UPPER MICHIGAN

CITY           SKY/WX    TMP DP  RH WIND       PRES   REMARKS
IRON MOUNTAIN  CLEAR     53  43  68 SE3       29.97S
HOUGHTON       CLEAR     51  42  71 SE5       29.90S
COPPER HARBOR    N/A     54  44  69 SW6       29.90S
IRONWOOD       CLEAR     57  43  59 S6        29.91S
$$

ABBREVIATIONS USED IN REMARKS
   TC - TEMPERATURE IN CELSIUS
  WCI - WIND CHILL INDEX
   HX - HEAT INDEX
  VSB - VISIBILITY




USA.gov is the U.S. government's official web portal to all federal, state and local government web resources and services.